Tracking 35331 objects as of 16-Sep-2026
HD Live streaming from Space Station
objects crossing your sky now

STARLINK-37901

Track STARLINK-37901 now!
10-day predictions
STARLINK-37901 is classified as:


NORAD ID: 69960
Int'l Code: 2026-157T
Launch date: July 9, 2026
Source: United States (US)
Launch site: AIR FORCE EASTERN TEST RANGE (AFETR)
Your satellite tracking list
Your tracking list is empty




NASA's NSSDC Master Catalog

Two Line Element Set (TLE):
1 69960U 26157T   26259.29001471  .00029409  00000-0  87804-3 0  9993
2 69960  53.1593 353.5998 0000980 104.1115 255.9996 15.34403282 10727
Source of the keplerian elements: AFSPC